User: anonymous   Login
Location: Unspecified
(0.0000°N, 0.0000°E)
Time: 19:13:04
(UTC+00:00)
Language:

GALILEO 11 (268) - Orbit

View from above orbital plane
View from above orbital plane
View from above satellite
View from above satellite

Ground track
Ground track

The orbit data is extracted from the following two-line orbital elements,

1 41175U 15079B   21023.33838979  .00000026  00000-0  00000-0 0  9996
2 41175  55.0309 155.4283 0002034 330.3026  29.6436  1.70473687 31766
Epoch (UTC): 23 January 2021 08:07:16
Eccentricity: 0.0002034
inclination: 55.0309°
perigee height: 23216 km
apogee height: 23228 km
right ascension of ascending node: 155.4283°
argument of perigee: 330.3026°
revolutions per day: 1.70473687
mean anomaly at epoch: 29.6436°
orbit number at epoch: 3176

The dashed part of the orbit path shows where the satellite is in the earth's shadow,  

DLR